Weather History for Topeka Forbes, KS

Change the Weather History Date:

Friday, February 1, 2013

  Actual Average Record
Temperature  
Mean Temperature 16 °F -  
Max Temperature 28 °F 40 °F 67 °F (1992)
Min Temperature 3 °F 18 °F -23 °F (1979)
Degree Days  
Heating Degree Days 50    
Moisture  
Dew Point 8 °F    
Average Humidity 68    
Maximum Humidity 84    
Minimum Humidity 53    
Precipitation  
Precipitation 0.00 in - - ()
Sea Level Pressure  
Sea Level Pressure 30.35 in    
Wind  
Wind Speed 5 mph (South)    
Max Wind Speed 13 mph    
Max Gust Speed -    
Visibility 10 miles    
Events      
Averages and records for this station are not official NWS values.
T = Trace of Precipitation, MM = Missing Value Source: NWS Daily Summary

Daily Weather History Graph

Daily Weather History Graph

Search for Another Location

Airport:

Trip Planner

Search our weather history database for the weather conditions in past years. The results will help you decide how hot, cold, wet, or windy it might be!

Date:

Astronomy

Feb. 01, 2013 Rise Set
Actual Time 7:28 AM CST 5:44 PM CST
Civil Twilight 7:00 AM CST 6:12 PM CST
Nautical Twilight 6:28 AM CST 6:44 PM CST
Astronomical Twilight 5:57 AM CST 7:15 PM CST
Moon 11:48 PM CST 10:06 AM CST
Length of Visible Light 11h 11m
Length of Day
10h 15m
Waning Gibbous, 70% of the Moon is Illuminated
Feb 1
Waning Gibbous
Feb 3
Last Quarter
Feb 10
New
Feb 17
First Quarter
Feb 25
Full

Hourly Weather History & Observations

Time (CST) Temp. Windchill Dew Point Humidity Pressure Visibility Wind Dir Wind Speed Gust Speed Precip Events Conditions
12:53 AM 6.1 °F - -0.0 °F 76% 30.51 in 10.0 mi Calm Calm - N/A   Scattered Clouds
1:53 AM 6.1 °F - 1.0 °F 80% 30.48 in 10.0 mi Calm Calm - N/A   Clear
2:53 AM 5.0 °F - 1.0 °F 84% 30.48 in 10.0 mi Calm Calm - N/A   Clear
3:53 AM 3.9 °F - -0.0 °F 84% 30.46 in 10.0 mi Calm Calm - N/A   Clear
4:53 AM 6.1 °F - 1.0 °F 80% 30.46 in 10.0 mi Calm Calm - N/A   Clear
5:53 AM 5.0 °F -4.1 °F 1.0 °F 84% 30.47 in 10.0 mi SW 4.6 mph - N/A   Clear
6:53 AM 6.1 °F - 1.0 °F 80% 30.48 in 10.0 mi Calm Calm - N/A   Clear
7:53 AM 6.1 °F - 1.9 °F 83% 30.48 in 10.0 mi Calm Calm - N/A   Clear
8:53 AM 12.9 °F 2.6 °F 6.1 °F 74% 30.48 in 10.0 mi SSE 6.9 mph - N/A   Clear
9:53 AM 18.0 °F 4.8 °F 8.1 °F 65% 30.45 in 10.0 mi South 12.7 mph - N/A   Clear
10:53 AM 19.9 °F 7.3 °F 9.0 °F 62% 30.42 in 10.0 mi South 12.7 mph - N/A   Clear
11:53 AM 21.9 °F 10.4 °F 10.9 °F 63% 30.40 in 10.0 mi South 11.5 mph - N/A   Scattered Clouds
1:53 PM 27.0 °F 16.1 °F 14.0 °F 58% 30.32 in 10.0 mi South 12.7 mph - N/A   Partly Cloudy
2:53 PM 27.0 °F 16.1 °F 12.9 °F 56% 30.29 in 10.0 mi South 12.7 mph - N/A   Scattered Clouds
3:53 PM 28.0 °F 17.5 °F 12.9 °F 53% 30.26 in 10.0 mi South 12.7 mph - N/A   Mostly Cloudy
4:53 PM 28.0 °F 18.6 °F 14.0 °F 56% 30.25 in 10.0 mi South 10.4 mph - N/A   Clear
5:53 PM 27.0 °F 16.7 °F 14.0 °F 58% 30.22 in 10.0 mi SSE 11.5 mph - N/A   Partly Cloudy
6:53 PM 25.0 °F 16.3 °F 12.9 °F 60% 30.23 in 10.0 mi South 8.1 mph - N/A   Clear
7:53 PM 24.1 °F 14.4 °F 12.9 °F 62% 30.22 in 10.0 mi South 9.2 mph - N/A   Clear
8:53 PM 23.0 °F 12.4 °F 12.9 °F 65% 30.21 in 10.0 mi South 10.4 mph - N/A   Clear
9:53 PM 24.1 °F 15.2 °F 12.9 °F 62% 30.19 in 10.0 mi South 8.1 mph - N/A   Clear
10:53 PM 26.1 °F 17.6 °F 14.0 °F 60% 30.18 in 10.0 mi South 8.1 mph - N/A   Overcast
11:53 PM 26.1 °F 16.8 °F 15.1 °F 63% 30.17 in 10.0 mi SSW 9.2 mph - N/A   Overcast